Brown Field Municipal Airport
KSDM : now visible

Airfield :











YOU CAN JOIN US ON...

 
LOGIN :

Register | Disclaimer

   EN    FR    IT 

 









Legend :    VFR   Marginal VFR   IFR   Intensive IFR   Very Intensive IFR
Visi :
Ceiling :
>= 8 km
>= 3000ft
5 to 8 km
1000 to 3000 ft
1500m to 5 km
500 to 1000 ft
800 to 1500m
200 to 500 ft
< 800m
< 200 ft
Symbols :   Thunderstorms  Fog  Heavy snow  Heavy precipitations  Wind > 20 kt







- Airport Elevation : 526 ft


KSDM - Brown Field Municipal

CURRENT METAR :
  • 170418Z AUTO 24003KT 9SM OVC014 16/14 A2990 RMK AO2 T01610139

EXPIRED METARs :
  • 170410Z AUTO 24004KT 8SM SCT010 OVC015 16/14 A2989 RMK AO2 T01610139
  • 170353Z 21004KT 7SM OVC009 16/14 A2989 RMK AO2 SLP119 T01610139
  • 170338Z 26005KT 6SM BR OVC009 16/14 A2990 RMK AO2 T01610139
  • 170300Z 27005KT 8SM OVC011 17/13 A2989 RMK AO2 T01670133
  • 170153Z 25005KT 10SM OVC009 17/14 A2987 RMK AO2 SLP111 T01720139

TAF N/A
KZLA FIR / North America



MET'MAP, your aeronautical weather chart ! - Copyright ORBIFLY December 2007 - Disclaimer

ORBIFLY MET'MAP TEAM :

Programming & Development : Alexandra Zaïnal
Concept & Development : Baudouin d'Aumeries
Co-Development & Prog : Marc-Olivier Méhu
Technical & hardware support : Manuel Goepfert

Contact : metmap@orbifly.com




SOURCES & CREDITS :

   NOAA       Earth
Advisory